CW7104 Weather Reports


time (UTC)temp
C
wind
direction
speed
KPH
gust
KPH
rain 1hr
cm
rain 24hr
cm
rain mn
cm
humidity
%
barometer
mb
20260906031905 26 22 0.0 0.0 0.00 0.00 0.00 71 1011.1
20260906031405 26 22 0.0 0.0 0.00 0.00 0.00 71 1011.1
20260906030905 27 22 0.0 0.0 0.00 0.00 0.00 70 1011.1
20260906030404 27 22 0.0 0.0 0.00 0.00 0.00 70 1011.1
20260906025905 27 22 0.0 0.0 0.00 0.00 0.00 69 1011.0
20260906025405 27 22 0.0 0.0 0.00 0.00 0.00 69 1011.0
20260906024904 27 270 0.0 0.0 0.00 0.00 0.00 68 1010.9
20260906023905 27 270 0.0 0.0 0.00 0.00 0.00 67 1010.7
20260906023404 27 270 0.0 0.0 0.00 0.00 0.00 67 1010.6
20260906022404 27 270 0.0 0.0 0.00 0.00 0.00 68 1010.5
20260906021905 27 270 0.0 0.0 0.00 0.00 0.00 68 1010.4
20260906020904 27 270 0.0 0.0 0.00 0.00 0.00 68 1010.5
20260906020405 28 270 0.0 0.0 0.00 0.00 0.00 68 1010.4
20260906015905 28 270 0.0 0.0 0.00 0.00 0.00 67 1010.4
20260906014904 28 270 0.0 0.0 0.00 0.00 0.00 66 1010.3
20260906014405 28 270 0.0 0.0 0.00 0.00 0.00 65 1010.2
20260906012905 29 270 0.0 0.0 0.00 0.00 0.00 63 1010.2
20260906012405 29 270 0.0 0.0 0.00 0.00 0.00 63 1010.1
20260906011905 29 270 0.0 0.0 0.00 0.00 0.00 63 1010.1
20260906011405 30 270 0.0 0.0 0.00 0.00 0.00 62 1010.1
20260906010904 30 269 0.0 0.0 0.00 0.00 0.00 60 1010.1
20260906010405 30 269 0.0 0.0 0.00 0.00 0.00 60 1010.1
20260906005905 30 270 0.0 0.0 0.00 0.00 0.00 60 1010.1
20260906005405 31 270 0.0 0.0 0.00 0.00 0.00 59 1010.0
20260906004904 31 270 0.0 0.0 0.00 0.00 0.00 58 1010.1
20260906004405 31 270 0.0 0.0 0.00 0.00 0.00 57 1010.1
20260906003905 31 270 0.0 0.0 0.00 0.00 0.00 57 1010.1
20260906003405 31 270 0.0 0.0 0.00 0.00 0.00 56 1010.2
20260906002404 31 289 0.0 0.0 0.00 0.00 0.00 56 1010.2
20260906001405 31 279 0.0 0.0 0.00 0.00 0.00 56 1010.3
20260906000904 31 290 0.0 0.0 0.00 0.00 0.00 55 1010.5
20260905235905 32 264 0.0 0.0 0.00 0.00 0.00 55 1010.6
20260905235405 32 265 0.0 0.0 0.00 0.00 0.00 54 1010.5
20260905234406 32 265 0.0 0.0 0.00 0.00 0.00 53 1010.4
20260905233905 32 259 0.0 0.0 0.00 0.00 0.00 54 1010.4
20260905233404 32 259 0.0 0.0 0.00 0.00 0.00 54 1010.3
20260905232905 32 259 0.0 0.0 0.00 0.00 0.00 54 1010.4
20260905232404 32 271 0.0 0.0 0.00 0.00 0.00 54 1010.3
20260905231904 32 333 0.0 0.0 0.00 0.00 0.00 54 1010.3
20260905231404 32 337 0.0 0.0 0.00 0.00 0.00 53 1010.2
20260905230904 32 337 0.0 0.0 0.00 0.00 0.00 53 1010.1
20260905230405 32 337 0.0 0.0 0.00 0.00 0.00 52 1010.0
20260905225904 32 337 0.0 0.0 0.00 0.00 0.00 52 1009.9
20260905225404 32 337 0.0 0.0 0.00 0.00 0.00 51 1009.9
20260905224905 33 337 0.0 0.0 0.00 0.00 0.00 50 1009.8
20260905224404 33 338 0.0 0.0 0.00 0.00 0.00 49 1009.8
20260905223905 34 338 0.0 0.0 0.00 0.00 0.00 48 1009.8
20260905223405 35 338 0.0 0.0 0.00 0.00 0.00 46 1009.8
20260905222904 35 338 0.0 0.0 0.00 0.00 0.00 45 1009.7
20260905222404 36 289 0.0 0.0 0.00 0.00 0.00 43 1009.8
20260905220904 36 299 0.0 0.0 0.00 0.00 0.00 44 1009.4
20260905220405 36 298 0.0 3.2 0.00 0.00 0.00 43 1009.6
20260905215904 36 281 0.0 4.8 0.00 0.00 0.00 43 1009.8
20260905214405 35 312 0.0 0.0 0.00 0.00 0.00 45 1009.9
20260905213905 35 312 0.0 0.0 0.00 0.00 0.00 47 1009.8
20260905213405 35 312 0.0 0.0 0.00 0.00 0.00 48 1009.9
20260905212404 34 311 0.0 0.0 0.00 0.00 0.00 48 1010.0
20260905211404 34 239 0.0 0.0 0.00 0.00 0.00 47 1010.1
20260905210904 33 239 0.0 0.0 0.00 0.00 0.00 48 1010.1
20260905210405 33 248 0.0 0.0 0.00 0.00 0.00 49 1010.2
20260905205904 32 223 0.0 0.0 0.00 0.00 0.00 50 1010.2
20260905205404 31 242 0.0 0.0 0.00 0.00 0.00 52 1010.3
20260905204905 31 241 0.0 0.0 0.00 0.00 0.00 51 1010.5
20260905204405 31 248 1.6 11.3 0.00 0.00 0.00 52 1010.6
20260905203904 31 280 1.6 9.7 0.00 0.00 0.00 52 1010.6
20260905203404 31 288 4.8 14.5 0.00 0.00 0.00 52 1011.0
20260905202404 31 271 3.2 22.5 0.00 0.00 0.00 51 1010.9
20260905201404 35 317 11.3 38.6 0.00 0.00 0.00 46 1010.8
20260905200904 37 344 1.6 19.3 0.00 0.00 0.00 40 1010.7
20260905200405 38 279 0.0 0.0 0.00 0.00 0.00 38 1010.4
20260905195404 39 234 0.0 0.0 0.00 0.00 0.00 36 1010.3
20260905194904 39 223 1.6 9.7 0.00 0.00 0.00 37 1010.3
20260905194405 38 224 3.2 9.7 0.00 0.00 0.00 38 1010.5
20260905193904 38 187 4.8 12.9 0.00 0.00 0.00 39 1010.5
20260905193404 38 278 1.6 12.9 0.00 0.00 0.00 37 1010.6
20260905192904 38 253 8.0 20.9 0.00 0.00 0.00 37 1010.7
20260905192404 38 237 0.0 0.0 0.00 0.00 0.00 37 1010.8
20260905191905 38 267 0.0 0.0 0.00 0.00 0.00 40 1010.9
20260905191404 38 184 3.2 9.7 0.00 0.00 0.00 38 1011.0
20260905190904 38 211 1.6 11.3 0.00 0.00 0.00 39 1011.1
20260905190405 37 240 1.6 8.0 0.00 0.00 0.00 40 1011.1
20260905185904 38 282 1.6 8.0 0.00 0.00 0.00 40 1011.1
20260905185404 37 269 3.2 11.3 0.00 0.00 0.00 40 1011.2
20260905184405 38 240 0.0 12.9 0.00 0.00 0.00 40 1011.3
20260905183904 38 276 3.2 16.1 0.00 0.00 0.00 40 1011.4
20260905183405 37 181 4.8 12.9 0.00 0.00 0.00 41 1011.4
20260905182904 37 199 1.6 8.0 0.00 0.00 0.00 41 1011.4
20260905182404 37 253 1.6 11.3 0.00 0.00 0.00 41 1011.5
20260905181404 37 260 4.8 12.9 0.00 0.00 0.00 40 1011.7
20260905180904 37 220 1.6 12.9 0.00 0.00 0.00 41 1011.7
20260905175404 37 314 0.0 0.0 0.00 0.00 0.00 43 1012.1
20260905174904 37 267 0.0 4.8 0.00 0.00 0.00 45 1012.0
20260905174404 36 267 0.0 9.7 0.00 0.00 0.00 45 1012.0
20260905173904 36 273 1.6 9.7 0.00 0.00 0.00 46 1012.1
20260905172904 36 334 0.0 0.0 0.00 0.00 0.00 43 1012.1
20260905172404 36 250 0.0 1.6 0.00 0.00 0.00 44 1012.2
20260905171904 36 221 0.0 12.9 0.00 0.00 0.00 43 1012.4
20260905171404 36 264 0.0 9.7 0.00 0.00 0.00 45 1012.4
20260905170904 36 274 1.6 11.3 0.00 0.00 0.00 45 1012.4
20260905170404 36 296 0.0 1.6 0.00 0.00 0.00 46 1012.5
20260905165404 36 278 1.6 8.0 0.00 0.00 0.00 45 1012.6
20260905164904 36 307 0.0 4.8 0.00 0.00 0.00 45 1012.7
20260905164403 36 251 3.2 9.7 0.00 0.00 0.00 45 1012.8
20260905163904 36 290 1.6 11.3 0.00 0.00 0.00 46 1012.8
20260905163404 36 349 1.6 14.5 0.00 0.00 0.00 48 1013.0
20260905162904 36 351 0.0 9.7 0.00 0.00 0.00 47 1013.1
20260905161904 35 269 0.0 3.2 0.00 0.00 0.00 49 1013.2
20260905161404 35 263 1.6 11.3 0.00 0.00 0.00 49 1013.2
20260905160904 35 24 3.2 11.3 0.00 0.00 0.00 51 1013.2
20260905160404 35 222 3.2 11.3 0.00 0.00 0.00 51 1013.2
20260905155904 35 341 1.6 9.7 0.00 0.00 0.00 51 1013.3
20260905155404 35 275 4.8 9.7 0.00 0.00 0.00 51 1013.3
20260905154904 34 274 3.2 11.3 0.00 0.00 0.00 52 1013.3
20260905154404 35 269 4.8 12.9 0.00 0.00 0.00 52 1013.2
20260905153904 35 259 0.0 9.7 0.00 0.00 0.00 52 1013.2
20260905152905 34 263 0.0 4.8 0.00 0.00 0.00 52 1013.2
20260905152404 34 246 0.0 3.2 0.00 0.00 0.00 54 1013.2
20260905151903 33 236 3.2 14.5 0.00 0.00 0.00 54 1013.2
20260905151404 33 230 0.0 9.7 0.00 0.00 0.00 56 1013.2
20260905150904 33 249 1.6 8.0 0.00 0.00 0.00 58 1013.2
20260905150404 32 266 3.2 8.0 0.00 0.00 0.00 57 1013.2
20260905145904 32 258 3.2 11.3 0.00 0.00 0.00 59 1013.3
20260905144404 31 262 0.0 0.0 0.00 0.00 0.00 62 1013.3
20260905143404 31 265 1.6 8.0 0.00 0.00 0.00 61 1013.4
20260905142904 31 263 0.0 0.0 0.00 0.00 0.00 63 1013.5
20260905142404 30 244 0.0 0.0 0.00 0.00 0.00 65 1013.5
20260905141904 30 242 0.0 1.6 0.00 0.00 0.00 67 1013.5
20260905141404 30 244 0.0 4.8 0.00 0.00 0.00 68 1013.6
20260905140904 29 224 0.0 0.0 0.00 0.00 0.00 71 1013.6
20260905135404 28 224 0.0 0.0 0.00 0.00 0.00 76 1013.6
20260905134904 27 223 0.0 0.0 0.00 0.00 0.00 78 1013.6
20260905134404 27 224 0.0 0.0 0.00 0.00 0.00 79 1013.6
20260905133904 27 225 0.0 0.0 0.00 0.00 0.00 80 1013.6
20260905133403 26 225 0.0 0.0 0.00 0.00 0.00 81 1013.7
20260905132904 26 225 0.0 0.0 0.00 0.00 0.00 82 1013.7
20260905132404 26 225 0.0 0.0 0.00 0.00 0.00 82 1013.7
20260905131904 25 225 0.0 0.0 0.00 0.00 0.00 82 1013.8
20260905131404 25 225 0.0 0.0 0.00 0.00 0.00 82 1013.8
20260905130903 25 225 0.0 0.0 0.00 0.00 0.00 82 1013.8
20260905130403 25 225 0.0 0.0 0.00 0.00 0.00 82 1013.7
20260905125904 24 225 0.0 0.0 0.00 0.00 0.00 82 1013.8
20260905125403 24 225 0.0 0.0 0.00 0.00 0.00 82 1013.8
20260905124904 23 225 0.0 0.0 0.00 0.00 0.00 82 1013.9
20260905124404 23 225 0.0 0.0 0.00 0.00 0.00 82 1013.8
20260905123904 23 225 0.0 0.0 0.00 0.00 0.00 82 1013.8
20260905123403 23 225 0.0 0.0 0.00 0.00 0.00 82 1013.7
20260905122404 23 225 0.0 0.0 0.00 0.00 0.00 82 1013.8
20260905121904 23 225 0.0 0.0 0.00 0.00 0.00 82 1013.8
20260905121404 23 225 0.0 0.0 0.00 0.00 0.00 82 1013.7
20260905120904 23 225 0.0 0.0 0.00 0.00 0.00 82 1013.6
20260905120404 23 225 0.0 0.0 0.00 0.00 0.00 82 1013.5
20260905115903 22 225 0.0 0.0 0.00 0.00 0.00 82 1013.5
20260905115404 22 225 0.0 0.0 0.00 0.00 0.00 81 1013.4
20260905114904 22 225 0.0 0.0 0.00 0.00 0.00 81 1013.4
20260905114403 22 225 0.0 0.0 0.00 0.00 0.00 81 1013.4
20260905113404 22 225 0.0 0.0 0.00 0.00 0.00 82 1013.3
20260905112903 22 225 0.0 0.0 0.00 0.00 0.00 82 1013.2
20260905112403 22 225 0.0 0.0 0.00 0.00 0.00 81 1013.2
20260905111404 23 225 0.0 0.0 0.00 0.00 0.00 81 1013.1
20260905110904 23 225 0.0 0.0 0.00 0.00 0.00 81 1013.0
20260905110403 23 225 0.0 0.0 0.00 0.00 0.00 81 1013.0
20260905105903 23 225 0.0 0.0 0.00 0.00 0.00 81 1013.0
20260905104903 23 225 0.0 0.0 0.00 0.00 0.00 81 1013.0
20260905103404 23 225 0.0 0.0 0.00 0.00 0.00 81 1012.9
20260905102903 23 225 0.0 0.0 0.00 0.00 0.00 81 1012.8
20260905100904 23 225 0.0 0.0 0.00 0.00 0.00 81 1012.7
20260905100404 23 225 0.0 0.0 0.00 0.00 0.00 81 1012.7
20260905095903 23 225 0.0 0.0 0.00 0.00 0.00 80 1012.7
20260905095403 23 225 0.0 0.0 0.00 0.00 0.00 80 1012.5
20260905094403 23 225 0.0 0.0 0.00 0.00 0.00 80 1012.5
20260905093403 23 225 0.0 0.0 0.00 0.00 0.00 80 1012.5
20260905092903 23 225 0.0 0.0 0.00 0.00 0.00 80 1012.5
20260905092404 23 225 0.0 0.0 0.00 0.00 0.00 80 1012.5
20260905091903 23 225 0.0 0.0 0.00 0.00 0.00 80 1012.4
20260905091404 23 225 0.0 0.0 0.00 0.00 0.00 80 1012.4
20260905090905 23 225 0.0 0.0 0.00 0.00 0.00 80 1012.4
20260905090405 23 225 0.0 0.0 0.00 0.00 0.00 79 1012.4
20260905085905 23 225 0.0 0.0 0.00 0.00 0.00 80 1012.3
20260905085406 23 225 0.0 0.0 0.00 0.00 0.00 80 1012.3
20260905084905 23 225 0.0 0.0 0.00 0.00 0.00 79 1012.3
20260905083405 24 225 0.0 0.0 0.00 0.00 0.00 79 1012.4
20260905082905 24 225 0.0 0.0 0.00 0.00 0.00 79 1012.4
20260905082405 24 225 0.0 0.0 0.00 0.00 0.00 79 1012.4
20260905081905 24 225 0.0 0.0 0.00 0.00 0.00 79 1012.5
20260905080905 24 225 0.0 0.0 0.00 0.00 0.00 78 1012.6
20260905080405 24 225 0.0 0.0 0.00 0.00 0.00 78 1012.5
20260905075905 24 225 0.0 0.0 0.00 0.00 0.00 78 1012.6
20260905075405 24 225 0.0 0.0 0.00 0.00 0.00 78 1012.6
20260905074905 25 225 0.0 0.0 0.00 0.00 0.00 78 1012.6
20260905074405 25 225 0.0 0.0 0.00 0.00 0.00 78 1012.5
20260905073905 25 225 0.0 0.0 0.00 0.00 0.00 78 1012.5
20260905073405 25 225 0.0 0.0 0.00 0.00 0.00 78 1012.5
20260905072906 25 225 0.0 0.0 0.00 0.00 0.00 78 1012.5
20260905072405 25 225 0.0 0.0 0.00 0.00 0.00 78 1012.6
20260905071905 25 225 0.0 0.0 0.00 0.00 0.00 77 1012.6
20260905070905 25 225 0.0 0.0 0.00 0.00 0.00 77 1012.6
20260905070405 25 225 0.0 0.0 0.00 0.00 0.00 77 1012.8
20260905065905 25 225 0.0 0.0 0.00 0.00 0.00 76 1012.7
20260905065405 25 225 0.0 0.0 0.00 0.00 0.00 76 1012.7
20260905064905 25 225 0.0 0.0 0.00 0.00 0.00 75 1012.6
20260905064405 26 225 0.0 0.0 0.00 0.00 0.00 75 1012.6
20260905063406 26 225 0.0 0.0 0.00 0.00 0.00 74 1012.7
20260905062905 26 225 0.0 0.0 0.00 0.00 0.00 74 1012.7
20260905061905 26 225 0.0 0.0 0.00 0.00 0.00 74 1012.7
20260905060906 26 225 0.0 0.0 0.00 0.00 0.00 73 1012.7
20260905060405 26 225 0.0 0.0 0.00 0.00 0.00 73 1012.7
20260905055905 26 225 0.0 0.0 0.00 0.00 0.00 73 1012.7
20260905055405 26 225 0.0 0.0 0.00 0.00 0.00 73 1012.8
20260905054905 26 225 0.0 0.0 0.00 0.00 0.00 73 1012.8
20260905054405 26 225 0.0 0.0 0.00 0.00 0.00 73 1012.9
20260905053905 26 225 0.0 0.0 0.00 0.00 0.00 73 1012.9
20260905052905 26 225 0.0 0.0 0.00 0.00 0.00 72 1013.0
20260905052405 27 225 0.0 0.0 0.00 0.00 0.00 72 1013.0
20260905051905 27 225 0.0 0.0 0.00 0.00 0.00 71 1013.0
20260905051404 27 225 0.0 0.0 0.00 0.00 0.00 71 1013.0
20260905050905 27 225 0.0 0.0 0.00 0.00 0.00 70 1013.0
20260905050405 27 225 0.0 0.0 0.00 0.00 0.00 69 1012.9
20260905045905 27 225 0.0 0.0 0.00 0.00 0.00 69 1012.9
20260905045405 27 225 0.0 0.0 0.00 0.00 0.00 69 1012.9
20260905043905 27 217 0.0 0.0 0.00 0.00 0.00 68 1012.8
20260905043405 27 217 0.0 0.0 0.00 0.00 0.00 68 1012.8
20260905042905 27 217 0.0 0.0 0.00 0.00 0.00 69 1012.7
20260905042405 27 217 0.0 0.0 0.00 0.00 0.00 69 1012.8
20260905041905 27 217 0.0 0.0 0.00 0.00 0.00 69 1012.8
20260905041405 28 217 0.0 0.0 0.00 0.00 0.00 69 1012.9
20260905040905 28 217 0.0 0.0 0.00 0.00 0.00 68 1013.0
20260905035905 29 217 0.0 0.0 0.00 0.00 0.00 67 1013.0
20260905034905 29 217 0.0 0.0 0.00 0.00 0.00 63 1013.1
20260905034404 29 218 0.0 0.0 0.00 0.00 0.00 64 1013.1
20260905033905 29 218 0.0 0.0 0.00 0.00 0.00 63 1013.1
20260905033405 30 218 0.0 0.0 0.00 0.00 0.00 62 1013.0
20260905032905 30 218 0.0 0.0 0.00 0.00 0.00 62 1013.0
20260905032405 30 218 0.0 0.0 0.00 0.00 0.00 62 1013.0